Douglas Bisbee, AZ

5:32 AM MST on September 22, 2017 (GMT -0700)
Bisbee Douglas International

Weather History for KDUG - March, 2013

Change the Weather History Date:

Sunday, March 24, 2013

  Actual Average Record
Temperature  
Mean Temperature 55 °F 56 °F  
Max Temperature 74 °F 74 °F 86 °F (1988)
Min Temperature 35 °F 38 °F 22 °F (2016)
Degree Days  
Heating Degree Days 10 9  
Month to date heating degree days 203 266  
Since 1 July heating degree days 2407 2302  
Cooling Degree Days 0 0  
Month to date cooling degree days 2 0  
Year to date cooling degree days 2 0  
Growing Degree Days 5 (Base 50)    
Moisture  
Dew Point 6 °F    
Average Humidity 17    
Maximum Humidity 27    
Minimum Humidity 7    
Precipitation  
Precipitation 0.00 in 0.01 in 0.03 in (1993)
Month to date precipitation 0.02 0.42  
Year to date precipitation 0.86 1.81  
Snow  
Snow 0.00 in - - ()
Month to date snowfall 0.0  
Snow Depth 0.00 in    
Sea Level Pressure  
Sea Level Pressure 29.89 in    
Wind  
Wind Speed 7 mph (NNW)    
Max Wind Speed 24 mph    
Max Gust Speed 35 mph    
Visibility 10 miles    
Events      
T = Trace of Precipitation, MM = Missing Value Source: NWS Daily Summary

Daily Weather History Graph

Daily Weather History Graph

Search for Another Location

Airport or City:

Trip Planner

Search our weather history database for the weather conditions in past years. The results will help you decide how hot, cold, wet, or windy it might be!

Date:

Astronomy

Mar. 24, 2013 Rise Set
Actual Time 6:16 AM MST 6:32 PM MST
Civil Twilight 5:52 AM MST 6:57 PM MST
Nautical Twilight 5:24 AM MST 7:25 PM MST
Astronomical Twilight 4:55 AM MST 7:54 PM MST
Moon 4:11 PM MST (3/24) 4:19 AM MST (3/24)
Length of Visible Light 13h 04m
Length of Day
12h 16m
Waxing Gibbous, 92% of the Moon is Illuminated
Mar 24
Waxing Gibbous
Mar 27
Full
Apr 2
Last Quarter
Apr 10
New
Apr 18
First Quarter

Hourly Weather History & Observations

Time (MST) Temp. Windchill Dew Point Humidity Pressure Visibility Wind Dir Wind Speed Gust Speed Precip Events Conditions
12:56 AM 39.9 °F - 6.1 °F 25% 29.94 in 10.0 mi Calm Calm - N/A   Clear
1:56 AM 43.0 °F - 8.1 °F 24% 29.93 in 10.0 mi Calm Calm - N/A   Clear
2:56 AM 39.0 °F 34.0 °F 6.1 °F 26% 29.92 in 10.0 mi NE 6.9 mph - N/A   Clear
3:56 AM 37.9 °F - 6.1 °F 27% 29.92 in 10.0 mi Calm Calm - N/A   Clear
4:56 AM 43.0 °F - 6.1 °F 22% 29.93 in 10.0 mi Calm Calm - N/A   Clear
5:56 AM 37.9 °F - 6.1 °F 27% 29.96 in 10.0 mi Calm Calm - N/A   Clear
6:56 AM 37.0 °F - 6.1 °F 28% 29.99 in 10.0 mi Calm Calm - N/A   Clear
7:56 AM 48.9 °F - 7.0 °F 18% 29.98 in 10.0 mi Calm Calm - N/A   Clear
8:56 AM 55.0 °F - 7.0 °F 15% 29.97 in 10.0 mi Calm Calm - N/A   Clear
9:56 AM 61.0 °F - 3.0 °F 10% 29.94 in 10.0 mi Calm Calm - N/A   Clear
10:56 AM 64.9 °F - 7.0 °F 10% 29.93 in 10.0 mi WNW 8.1 mph - N/A   Clear
11:56 AM 68.0 °F - 9.0 °F 10% 29.89 in 10.0 mi West 11.5 mph 18.4 mph N/A   Clear
12:56 PM 68.0 °F - 9.0 °F 10% 29.88 in 10.0 mi West 4.6 mph 18.4 mph N/A   Clear
1:56 PM 70.0 °F - 7.0 °F 9% 29.82 in 10.0 mi Variable 4.6 mph 17.3 mph N/A   Clear
2:56 PM 73.0 °F - 6.1 °F 7% 29.79 in 10.0 mi WNW 13.8 mph 18.4 mph N/A   Clear
3:56 PM 73.9 °F - 5.0 °F 7% 29.78 in 10.0 mi NW 16.1 mph 21.9 mph N/A   Clear
4:56 PM 72.0 °F - 5.0 °F 7% 29.77 in 10.0 mi NNW 20.7 mph 26.5 mph N/A   Clear
5:56 PM 68.0 °F - 6.1 °F 9% 29.80 in 10.0 mi NNW 19.6 mph - N/A   Clear
6:56 PM 62.1 °F - 6.1 °F 11% 29.84 in 10.0 mi NNW 13.8 mph - N/A   Clear
7:56 PM 57.0 °F - 3.9 °F 12% 29.85 in 10.0 mi North 9.2 mph - N/A   Clear
8:56 PM 55.9 °F - 1.9 °F 11% 29.86 in 10.0 mi NW 13.8 mph - N/A   Clear
9:56 PM 52.0 °F - 1.0 °F 12% 29.87 in 10.0 mi NNE 10.4 mph - N/A   Clear
10:56 PM 51.1 °F - 1.9 °F 13% 29.88 in 10.0 mi North 10.4 mph - N/A   Clear
11:56 PM 48.0 °F - 1.9 °F 15% 29.88 in 10.0 mi North 11.5 mph - N/A   Clear